sat.trackr.live / text

‹ back to catalog

LINGQIAO VIDEO B

NORAD 40960 · 2015-057C

PAYLOAD ACTIVE UNKNOWN

§ Identity

Operator
Country
PRC
Launch date
2015-10-07
Launch site
JSC
Launch vehicle
Mass (kg)
RCS (m²)
0.40

External: N2YO · Heavens-Above · Gunter

§ Orbital elements

Epoch: 2026-05-25T05:51:51.211008Z

Period
97.46 min
Inclination
97.6589°
Eccentricity
0.0016747
Mean motion
14.77461951 rev/d
Perigee alt
625.6 km
Apogee alt
649.1 km
Semi-major
7,015.5 km
B*
1.3595e-4
RAAN
142.3499°
Arg perigee
349.8160°
Mean anomaly
10.2710°
Rev number
57,206

§ Raw data

LINGQIAO VIDEO B1 40960U 15057C   26145.24434272  .00000922  00000+0  13595-3 0  99912 40960  97.6589 142.3499 0016747 349.8160  10.2710 14.77461951572069

JSON: /api/v1/satellites/40960 · /tle

For live sub-satellite position, see the globe view (requires WebGL).

§ Visibility from observer

Set your observer location to see the next 7 days of passes ≥ 10°. The values pass through the URL so the page stays shareable.

No JS? Fill the form by hand. The geolocation button needs JavaScript.

§ Radio — SatNOGS DB

ModeDescriptionDownlinkUplink
BPSK Telemetry 2.274 GHz

1 transmitter · refreshed weekly from db.satnogs.org